OneWeb SL0115

operational
NORAD ID: 48042 Int'l Des: 2021-025 Owner: ONEWEBN Country: UK Constellation: oneweb
LEOCIRCULARPOLARONEWEB_TYPE

Über OneWeb SL0115

Beschreibung wird geladen...

Live-Position

3D-Globus wird geladen...

Nächste Überflüge

Höhenverlauf

Altitude vs Time

uPlot chart will show altitude changes over time

Zweizeiliger Elementsatz

1 48042U 21025A 25258.55547860 .00000245 00000-0 63498-3 0 9994
2 48042 87.9039 14.7705 0001761 98.5773 261.5556 13.13471467217540
Epoch: 15. Sept. 2025 • Age: 17 hours

Aktueller Status

Höhe 1221.7 km
Geschwindigkeit 7.25 km/s
Subsatellitenpunkt 77.16°N, 64.29°W
Startdatum 25. März 2021
Alter 4.4 years
Typ internet

Technische Details

Klassifizierung Payload
Masse 148.00 kg
Trockenmasse 140.00 kg
Gesamtmasse 148.00 kg
Länge 1.30 m
Durchmesser 1.00 m
Spannweite 5.00 m
Form Trapezoid+2 pan
Hersteller ONEWUS
Bus-Typ ARROW
Phasenstatus In Orbit
Besitzer/Staat ONEWEBN/UK

Große Konstellationen

Loading constellations...